This is the latest recevied weather packets stored in our database for station/object KC4JES. If no packets are shown the sender has not sent any weather packets the latest 10 day(s).
| Time | Temp. | Humidity | Pressure | Rain* | Wind** | Luminosity | Snow |
|---|---|---|---|---|---|---|---|
| 1778153868 | 21.67° C | 80% | 1015.7 hPa | 0 mm | - | 37 W/m² | - |
| 1778153564 | 21.67° C | 81% | 1015.7 hPa | 0 mm | - | 34 W/m² | - |
| 1778153262 | 21.11° C | 82% | 1015.7 hPa | 0 mm | - | 31 W/m² | - |
| 1778152959 | 21.11° C | 83% | 1015.5 hPa | 0 mm | - | 27 W/m² | - |
| 1778152657 | 20.56° C | 84% | 1015.5 hPa | 0 mm | - | 24 W/m² | - |
| 1778152353 | 20.56° C | 86% | 1015.3 hPa | 0 mm | - | 18 W/m² | - |
| 1778152049 | 20.56° C | 88% | 1015.2 hPa | 0 mm | - | 11 W/m² | - |
| 1778151746 | 20.56° C | 88% | 1015.3 hPa | 0 mm | - | 7 W/m² | - |
| 1778151443 | 20.56° C | 88% | 1015.3 hPa | 0 mm | - | 5 W/m² | - |
| 1778151139 | 20.56° C | 87% | 1015.4 hPa | 0 mm | - | 4 W/m² | - |
| 1778150836 | 20.56° C | 87% | 1015.3 hPa | 0 mm | - | 2 W/m² | - |
| 1778150533 | 20.56° C | 86% | 1015.5 hPa | 0 mm | - | 1 W/m² | - |
| 1778150229 | 21.11° C | 86% | 1015.4 hPa | 0 mm | - | 1 W/m² | - |
| 1778149925 | 21.11° C | 86% | 1015.4 hPa | 0 mm | - | 0 W/m² | - |
| 1778149622 | 21.11° C | 86% | 1015.4 hPa | 0 mm | - | 0 W/m² | - |
| 1778149318 | 21.11° C | 86% | 1015.3 hPa | 0 mm | - | 0 W/m² | - |
| 1778149014 | 21.11° C | 86% | 1015.2 hPa | 0 mm | - | 0 W/m² | - |
| 1778148710 | 21.11° C | 85% | 1015.1 hPa | 0 mm | - | 0 W/m² | - |
| 1778148407 | 21.11° C | 85% | 1015.2 hPa | 0 mm | - | 0 W/m² | - |
| 1778148106 | 21.11° C | 85% | 1015.4 hPa | 0 mm | - | 0 W/m² | - |
| 1778147803 | 21.11° C | 85% | 1015 hPa | 0 mm | - | 0 W/m² | - |
| 1778147499 | 21.11° C | 85% | 1015.1 hPa | 0 mm | - | 0 W/m² | - |
| 1778147196 | 21.11° C | 84% | 1014.9 hPa | 0 mm | - | 0 W/m² | - |
| 1778146893 | 21.11° C | 84% | 1015.1 hPa | 0 mm | - | 0 W/m² | - |
| 1778146590 | 21.11° C | 84% | 1015 hPa | 0 mm | - | 0 W/m² | - |
* Rain latest hour (hover to see other rain measurements)
** Current wind speed in m/s (hover to see current wind gust speed)